Home   Weather   Taunton   Past weeks

Flag for United Kingdom Past Weather in Taunton, England, United Kingdom — Yesterday and Last 2 Weeks

Now
48 °F

Cool.


Feels Like: 42 °F
Forecast: 43 / 55 °F
Wind: 20 mph from Southwest

Location: Dunkeswell Aerodrome

Current Time: Nov 23, 2017 at 1:25:50 pm

Latest Report: Nov 23, 2017 at 12:00 pm


Visibility: 15 mi

Pressure: 29.56 "Hg

Humidity: 70%

Dew Point: 39 °F

Location of TauntonLocation

Past Weather in Taunton — Graph

°F

Taunton Temperature Yesterday

Maximum temperature yesterday: 55 °F (at 1:00 pm)
Minimum temperature yesterday: 51 °F (at 11:00 pm)
Average temperature yesterday: 54 °F

High & Low Weather Summary for the Past Weeks

 TemperatureHumidityPressure
High55 °F (Nov 22, 1:00 pm)100% (Nov 9, 5:00 am)30.45 "Hg (Nov 9, 5:00 am)
Low32 °F (Nov 17, 8:00 am)60% (Nov 17, 1:00 pm)29.09 "Hg (Nov 23, 1:00 am)
Average47 °F90%30.10 "Hg
* Reported Nov 8 11:00 am — Nov 23 11:00 am, Taunton. Weather by CustomWeather, © 2017

Note: Actual official high and low records may vary slightly from our data, if they occured in-between our weather recording intervals... More about our weather records

Advertising

Taunton Weather History for the Previous 24 Hours

Scroll right to see more
 ConditionsComfort  
Time TempWeatherWind HumidityBarometerVisibility
11:00 am
Thu, Nov 23
46 °FCool.18 mph72%29.55 "Hg25 mi
10:00 am45 °FCool.13 mph78%29.50 "Hg17 mi
9:00 am42 °FQuite cool.14 mph85%29.47 "Hg13 mi
8:00 am41 °FQuite cool.10 mph90%29.44 "Hg18 mi
7:00 am42 °FQuite cool.9 mph89%29.38 "Hg19 mi
6:00 am43 °FQuite cool.13 mph93%29.32 "Hg22 mi
5:00 am46 °FCool.15 mph97%29.26 "Hg4 mi
4:00 am51 °FCool.15 mph97%29.18 "Hg7 mi
3:00 am50 °FCool.13 mph100%29.15 "Hg7 mi
2:00 am50 °FCool.10 mph100%29.12 "Hg12 mi
1:00 am51 °FCool.15 mph100%29.09 "Hg11 mi
12:00 am51 °FRain. Overcast.14 mph100%29.12 "Hg6 mi
11:00 pm
Wed, Nov 22
51 °FLight rain. Overcast.15 mph99%29.12 "Hg9 mi
10:00 pm51 °FLight rain. Overcast.17 mph98%29.15 "Hg8 mi
9:00 pm52 °FRain showers. Overcast.22 mph95%29.15 "Hg1 mi
8:00 pm54 °FCool.22 mph91%29.15 "Hg4 mi
7:00 pm55 °FCool.26 mph88%29.18 "Hg5 mi
6:00 pm55 °FRain showers. Overcast.26 mph87%29.21 "Hg6 mi
5:00 pm55 °FLight rain. Overcast.26 mph86%29.23 "Hg6 mi
4:00 pm54 °FRain showers. Cloudy.24 mph88%29.26 "Hg6 mi
3:00 pm55 °FCool.30 mph91%29.29 "Hg5 mi
2:00 pm55 °FLight rain. Cloudy.25 mph97%29.32 "Hg3 mi
1:00 pm55 °FDrizzle. Cloudy.24 mph94%29.35 "Hg5 mi
Weather by CustomWeather, © 2017

See weather overview